Terminal Aerodrome Forecast
Issued by NWS

Home | Current Version | Previous Version | Text Only | Print | Product List | Glossary Off
Versions: 1 2 3 4 5 6 7 8 9 10 11 12 13 14 15 16 17 18 19 20 21 22

000
FTUS45 KGGW 181100
TAFOLF
TAF
KOLF 181136Z 1812/1912 25006KT P6SM SCT090
     FM181700 30011KT P6SM SKC
     FM190100 VRB03KT P6SM SKC=

USA.gov is the U.S. government's official web portal to all federal, state and local government web resources and services.